#timestamp,LO_Frequency,Hit 
1506031215.8,286047005.1,N
1506031235.6,286047003.0,N
1506031255.4,286047002.0,N
1506031275.3,286047000.9,N
1506031295.1,286046998.2,N
1506031315.8,286046999.0,N
1506031335.7,286046995.4,N
1506031355.5,286046992.1,N
1506031375.3,286046990.3,N
1506031395.2,286046996.2,N
1506031415.9,286046998.0,N
1506031435.7,286046995.3,N
1506031455.6,286046994.2,N
1506031475.4,286046993.3,N
1506031495.2,286046994.7,N
1506031515.1,286046990.9,N
1506031516.0,286046990.9,N
1506031535.8,286046996.0,N
1506031555.6,286046993.5,N
1506031575.4,286046995.4,N
1506031595.3,286047000.7,N
1506031615.1,286047002.0,N
1506031635.8,286047002.4,N
1506031655.7,286046998.2,N
1506031675.5,286047001.2,N
1506031695.3,286047000.8,N
1506031715.2,286047001.9,N
1506031735.9,286047004.4,N
1506031755.7,286047004.4,N
1506031775.6,286047005.2,N
1506031795.4,286047005.6,N
1506031815.2,286047005.0,N
1506031835.1,286047003.5,N
1506031836.0,286047003.5,N
1506031855.8,286047005.4,N
1506031875.6,286047003.2,N
1506031895.4,286046999.8,N
1506031915.3,286047002.9,N
1506031935.1,286047003.7,N
1506031955.8,286047005.5,N
1506031975.7,286047003.1,N
1506031995.5,286047005.5,N
1506032015.3,286047006.8,N
1506032035.2,286047004.8,N
1506032055.9,286047002.7,N
1506032075.7,286046999.9,N
1506032095.6,286047000.7,N
1506032115.4,286046998.9,N
1506032135.2,286046998.5,N
1506032155.1,286047003.1,N
1506032156.0,286047003.1,N
1506032175.8,286047005.3,N
1506032195.6,286047005.5,N
1506032215.5,286047003.0,N
1506032235.3,286047006.0,N
1506032255.1,286047003.6,N
1506032275.8,286047003.5,N
1506032295.7,286047004.1,N
1506032315.5,286047005.8,N
1506032335.3,286047007.4,P
1506032355.2,286047001.8,N
1506032375.0,286047001.3,N
1506032375.9,286047001.3,N
1506032395.7,286047001.3,N
1506032415.6,286047002.8,N
1506032435.4,286047002.3,N
1506032455.2,286047001.3,N
1506032475.1,286047003.6,N
1506032476.0,286047003.6,N
1506032495.8,286047005.7,P
1506032515.6,286046999.8,N
1506032535.5,286047002.0,N
1506032555.3,286047002.4,N
1506032575.1,286047002.1,N
1506032595.9,286046998.7,N
1506032615.7,286046998.5,N
1506032635.5,286047000.4,N
1506032655.4,286047000.1,N
1506032675.2,286047002.2,N
1506032695.0,286047003.6,N
1506032695.9,286047003.6,N
1506032715.8,286047001.4,N
1506032735.6,286047001.3,N
1506032755.4,286047004.3,N
1506032775.3,286047002.0,N
1506032795.1,286046999.7,N
1506032796.0,286046999.7,N
1506032815.8,286047000.5,N
1506032835.6,286046998.5,N
1506032855.5,286046999.2,N
1506032875.3,286046999.4,N
1506032895.1,286046998.6,N
1506032915.9,286047000.6,N
1506032935.7,286046998.3,N
1506032955.5,286047002.3,N
1506032975.4,286047000.5,N
1506032995.2,286047003.9,N
1506033015.0,286046999.7,N
1506033015.9,286046999.7,N
1506033035.8,286046999.1,N
1506033055.6,286046998.8,N
1506033075.4,286046998.4,N
1506033095.3,286047001.5,N
1506033115.1,286047001.8,N
1506033116.0,286047001.8,N
1506033135.8,286047004.3,N
1506033155.7,286047005.3,N
1506033175.5,286047007.9,P
1506033195.3,286047008.9,N
1506033215.2,286047007.3,N
1506033235.9,286047007.9,N
1506033255.7,286047006.5,N
1506033275.6,286047008.8,P
1506033295.4,286047000.6,N
1506033315.2,286047000.7,N
1506033335.1,286046998.8,N
1506033336.0,286046998.8,N
1506033355.8,286046999.0,N
1506033375.6,286046998.6,N
1506033395.5,286047001.2,N
1506033415.3,286046999.8,N
1506033435.1,286046999.7,N
1506033455.8,286046998.1,N
1506033475.7,286046999.5,N
1506033495.5,286046999.2,N
1506033515.3,286046998.1,N
1506033535.2,286046998.1,N
1506033555.9,286046999.6,N
1506033575.7,286046999.4,N
1506033595.6,286047000.6,N
1506033615.4,286047000.2,N
1506033635.2,286047001.9,N
1506033655.1,286047002.8,N
1506033656.0,286047002.8,N
1506033675.8,286047001.1,N
1506033695.6,286046999.2,N
1506033715.4,286046996.5,N
1506033735.3,286047004.4,N
1506033755.1,286047003.9,N
1506033775.8,286047003.2,N
1506033795.7,286046999.9,N
1506033815.5,286046998.2,N
1506033835.3,286046999.3,N
1506033855.2,286046996.9,N
1506033875.9,286046995.2,N
1506033895.7,286046997.7,N
1506033915.6,286047000.8,N
1506033935.4,286047001.0,N
1506033955.2,286047000.3,N
1506033975.0,286046998.4,N
1506033976.0,286046998.4,N
1506033995.8,286046998.7,N
1506034015.6,286047000.7,N
1506034035.4,286047000.8,N
1506034055.3,286046996.9,N
1506034075.1,286046998.8,N
1506034095.8,286047002.3,N
1506034115.7,286047001.6,N
1506034135.5,286047003.0,N
1506034155.3,286047006.1,N
1506034175.2,286047004.6,N
1506034195.9,286047005.4,N
1506034215.7,286047003.5,N
1506034235.6,286047002.6,N
1506034255.4,286047002.1,N
1506034275.2,286047001.6,N
1506034295.1,286047000.8,N
1506034296.0,286047000.8,N
1506034315.8,286047000.5,N
1506034335.6,286046994.9,N
1506034355.4,286046998.4,N
1506034375.3,286046999.1,N
1506034395.1,286046995.0,N
1506034415.8,286046997.1,N
1506034435.7,286046999.9,N
1506034455.5,286047001.9,N
1506034475.3,286047002.3,N
1506034495.2,286046999.1,N
1506034515.9,286046999.3,N
1506034535.7,286046997.7,N
1506034555.6,286046999.6,N
1506034575.4,286046998.7,N
1506034595.2,286047003.7,N
1506034615.1,286046999.7,N
1506034616.0,286046999.7,N
1506034635.8,286046995.6,N
1506034655.6,286046997.1,N
1506034675.5,286046997.4,N
1506034695.3,286047001.0,N
1506034715.1,286047002.6,N
1506034735.8,286047002.2,N
1506034755.7,286047002.6,N
1506034775.5,286047003.5,N
1506034795.3,286047005.4,N
